Voltar ao catálogo

AETHER-7

AtivoComunicaçõesSSO
NORAD 67378·PAYLOAD·🇨🇦 Canada

Lançado Jan 11, 2026 de Vandenberg Space Force Base

Loading…

Próximas Passagens (próximas 24 horas)

TLE

AtualizadoSource: Space-Track

Época: Sep 14, 2026, 05:22 UTC

1 67378U 26004R   26257.22405826  .00001216  00000-0  14365-3 0  9996
2 67378  97.8076 254.0713 0002895 167.0033 193.1258 14.86476350 36503

Acompanhe AETHER-7 em tempo real com AllMySat

Download on the App Store